Regional Weather Roundup
Issued by NWS

Home | Current Version | Previous Version | Graphics & Text | Print | Product List | Glossary On
Versions: 1 2 3 4 5 6 7 8 9 10 11 12 13 14 15 16 17 18 19 20 21 22 23 24 25 26 27
000
ASUS45 KSLC 230010
RWRUT

UTAH REGIONAL WEATHER ROUNDUP
NATIONAL WEATHER SERVICE SALT LAKE CITY UT
600 PM MDT TUE APR 22 2014

UTZ001>011-023>025-230100-

NORTHERN UTAH

CITY           SKY/WX    TMP DP  RH WIND       PRES   REMARKS
HILL AFB       CLOUDY    63  31  29 W26G38    29.52R BLWGDUST
LOGAN          LGT RAIN  45  38  76 N40G55    29.58R
OGDEN          CLOUDY    64  32  30 NW31G41   29.49R HAZE
PROVO AIRPORT  PTSUNNY   72  36  26 S17G29    29.55F
SALT LAKE CITY BLWGDUST  56  38  50 W35G48    29.59R VSB 1
VERNAL         CLOUDY    69  26  20 S17G30    29.63F
WENDOVER       CLOUDY    46  30  53 W39G47    29.67R
HEBER CITY     DRIZZLE   63  28  27 S21G29    29.58F
WEST JORDAN    CLOUDY    73  32  21 S25G39    29.53R

$$

UTZ012>022-026-027-230100-

SOUTHERN UTAH

CITY           SKY/WX    TMP DP  RH WIND       PRES   REMARKS
BRYCE CANYON   CLOUDY    60  25  26 S23G35    29.83F
CEDAR CITY     MOSUNNY   69  16  13 SW37G53   29.68R
MILFORD        MOSUNNY   73  14  10 SW39G58   29.64R HAZE
MOAB/CYNLANDS  SUNNY     78  24  13 SW20G33   29.61F
PRICE          CLOUDY    68  23  18 SW16G36   29.66F
ST GEORGE      CLOUDY    82  23  11 SW35G43   29.61F

$$

REGIONAL REPORTS     COLORADO/ARIZONA

CITY           SKY/WX    TMP DP  RH WIND       PRES   REMARKS
CRAIG, CO      CLOUDY    65  25  22 SW16G24   29.76F
GRAND JUNCTION CLOUDY    70  29  21 N10       29.68F
RIFLE          CLOUDY    71  26  18 S3        29.73F
MONTROSE       CLOUDY    68  35  29 SE23      29.80F
CORTEZ         MOSUNNY   73  26  17 SW18G30   29.83F
PAGE, AZ       CLOUDY    79  22  12 SW13G24   29.67F
GRAND CANYON   CLOUDY    65  21  18 SW32G40   29.87F
KINGMAN        PTSUNNY   79   3   5 S35G45    29.75F
FLAGSTAFF      PTSUNNY   62  25  24 SW29G43   29.94F

$$

REGIONAL REPORTS    NEVADA/IDAHO/WYOMING

CITY           SKY/WX    TMP DP  RH WIND       PRES   REMARKS
LAS VEGAS, NV  MOSUNNY   79 -11   3 SW30G45   29.61S
ELY            CLOUDY    42  31  64 N10G20    29.85S
ELKO           LGT RAIN  40  33  76 CALM      29.83R
POCATELLO, ID  LGT RAIN  43  40  89 SW18      29.71S
BURLEY         LGT RAIN  40  37  89 SW18G24   29.74R WCI  31
EVANSTON, WY   LGT RAIN  56  30  37 S25G41    29.65S
ROCK SPRINGS   CLOUDY    66  23  19 S24G32    29.66F

$$



USA.gov is the U.S. government's official web portal to all federal, state and local government web resources and services.